STARLINK-2751, 48685

Orbit data source: Space-Track

STARLINK-2751, 48685 is a payload satellite owned by SpaceX/Seattle (US) in LEO that was launched on Wed, 26 May 2021 UTC via an FALCON 9 launch vehicle from the Air Force Eastern Test Range (AFETR). Payload-class satellites include a variety of spacecraft equipped with specific instruments for various scientific and technological missions. These include communications satellites like Starlink; space stations such as the ISS; scientific satellites like the Hubble; Earth observation satellites from companies like Planet Labs, Umbra, and HawkEye 360; GPS; miniature CubeSats for education and research; and military/defense satellites.

Loading next visibility...
Identifier
48685, 2021-044AZ
Orbit
LEO
Country
Flag of USUS
Related business
Manufacturer
SpaceX/Seattle
Mission
Operational Commercial Communications
Bus & Motor
STARLINK, Unknown motor
Mass
260 kg wet, ~248 kg dry
Launch date (UTC)
2021-05-26 (5 years ago)
Launch vehicle
FALCON 9
Launch site
Air Force Eastern Test Range (AFETR)
Object type
Payload
Rocket body
Debris
Shape & HBR
Box + 1 Pan, 10.1 m
Radar Cross Section
13.562 m², Large (>1 m²)

Expand to show TLE details & history
Last TLE update: 1 day ago

TLE from 1 day ago
0 STARLINK-2751
1 48685U 21044AZ  25348.98872953  .00003216  00000-0  23479-3 0  9995
2 48685  53.0552  91.9051 0001361 102.0707 258.0435 15.06382186251641
Epoch: 2025-12-14T23:43Z
TLE epoch observation values (Epoch: 2025-12-14T23:43:46.231Z)
Latitude
0.00002°
Longitude
12.06874°
Altitude
548.341 km
Speed
7.589 km/s
True Right ascension
06h 07m 37s
True Declination
0° 00' 00"
Sunlit
Object was in full shadow at epoch
Visualization orbit readout
Latitude
Unknown
Longitude
Unknown
Altitude
Unknown
Speed
Unknown
Apparent Right ascension
Unknown
Apparent Declination
Unknown
Sunlit
N/A
Visualization observer readout
Local Sidereal Time
23:01:35
Azimuth
Unknown
Elevation
Unknown
Doppler factor
Unknown
Orbital elements
Apogee altitude
548.479 km
Perigee altitude
546.594 km
Semi-major axis
6,925.674 km
Eccentricity
0.00014
Inclination
53.0552°
RAAN
91.9051°
Arg. of periapsis
102.0707°
True anomaly
258.02824°
Mean anomaly
258.0435°
Eccentric anomaly
258.03587°
Mean motion
3.76574 °/min
Orbital period
95.6 mins
BSTAR
0.00023479
Loading maneuver chart data...
Computing Atmospheric mass density...
Loading historical data...
Loading historical data...
Loading historical data...
Loading historical data...
Loading historical data...
Loading historical data...
Loading historical data...

Documentation

Showing up to 5 results
|